Location: ??????
(38.3184°N, 23.6932°E)
Time: 02:01:53
(UTC+00:00)

HJ-1C - Pass Details

Date: 16 October 2021
Orbit: 422 x 433 km, 97.1° (Epoch: 04 December)

Event Time Altitude Azimuth Distance (km) Brightness Sun altitude
Exits shadow 17:15:48 61° 70° (ENE) 486 3.2 -18.4°
Drops below altitude 10° 17:18:57 10° 356° (N) 1,519 6.2 -19.0°
Sets 17:20:59 0° 353° (N) 2,391 7.2 -19.4°
